• Em Portugal
  • Lista de países
  • Para 7 dias
  • Temperatura da água
  • Mapas de satélite
  • Mapa do tempo
  • Widgets de tempo
  • user-avatar
    Iniciar Sessão

    Previsão horária em Ali Bayramli

    Hoje, 25 Maio, Sexta-feira

    Tempo Temperatura Precipitação Vento Pressão Humidade
    00:00 +24°C° 0 mm 1 m/s 755 mmHg 50%
    01:00 +24°C° 0 mm 1 m/s 755 mmHg 50%
    02:00 +23°C° 0 mm 1 m/s 755 mmHg 50%
    03:00 +23°C° 0 mm 1 m/s 755 mmHg 48%
    04:00 +24°C° 0 mm 1 m/s 755 mmHg 47%
    05:00 +24°C° 0 mm 1 m/s 755 mmHg 45%
    06:00 +23°C° 0 mm 0 m/s 755 mmHg 43%
    07:00 +27°C° 0 mm 1 m/s 755 mmHg 39%
    08:00 +28°C° 0 mm 1 m/s 755 mmHg 34%
    09:00 +30°C° 0 mm 1 m/s 755 mmHg 30%
    10:00 +31°C° 0 mm 1 m/s 754 mmHg 27%
    11:00 +32°C° 0 mm 1 m/s 754 mmHg 25%
    12:00 +34°C° 0 mm 1 m/s 754 mmHg 22%
    13:00 +35°C° 0 mm 2 m/s 753 mmHg 22%
    14:00 +35°C° 0 mm 3 m/s 753 mmHg 22%
    15:00 +36°C° 0 mm 4 m/s 753 mmHg 21%
    16:00 +35°C° 0 mm 4 m/s 753 mmHg 24%
    17:00 +34°C° 0 mm 4 m/s 753 mmHg 26%
    18:00 +33°C° 0 mm 4 m/s 752 mmHg 28%
    19:00 +30°C° 0 mm 3 m/s 753 mmHg 31%
    20:00 +28°C° 0 mm 3 m/s 753 mmHg 34%
    21:00 +27°C° 0 mm 2 m/s 753 mmHg 38%
    22:00 +26°C° 0 mm 2 m/s 753 mmHg 39%
    23:00 +26°C° 0 mm 1 m/s 753 mmHg 41%

    Amanhã, 26 Maio, Sábado

    Tempo Temperatura Precipitação Vento Pressão Humidade
    00:00 +25°C° 0 mm 1 m/s 753 mmHg 43%
    01:00 +25°C° 0 mm 1 m/s 753 mmHg 44%
    02:00 +25°C° 0 mm 1 m/s 753 mmHg 44%
    03:00 +24°C° 0 mm 1 m/s 753 mmHg 45%
    04:00 +25°C° 0 mm 1 m/s 753 mmHg 44%
    05:00 +26°C° 0 mm 2 m/s 753 mmHg 43%
    06:00 +26°C° 0 mm 2 m/s 754 mmHg 41%
    07:00 +28°C° 0 mm 2 m/s 754 mmHg 38%
    08:00 +29°C° 0 mm 2 m/s 754 mmHg 34%
    09:00 +31°C° 0 mm 2 m/s 754 mmHg 31%
    10:00 +32°C° 0 mm 2 m/s 754 mmHg 30%
    11:00 +34°C° 0 mm 2 m/s 754 mmHg 28%
    12:00 +35°C° 0 mm 2 m/s 754 mmHg 27%
    13:00 +35°C° 0 mm 3 m/s 754 mmHg 28%
    14:00 +36°C° 0 mm 4 m/s 754 mmHg 29%
    15:00 +36°C° 0 mm 5 m/s 754 mmHg 29%
    16:00 +35°C° 0 mm 6 m/s 754 mmHg 34%
    17:00 +33°C° 0 mm 7 m/s 755 mmHg 39%
    18:00 +32°C° 0 mm 8 m/s 755 mmHg 44%
    19:00 +30°C° 0 mm 7 m/s 756 mmHg 46%
    20:00 +29°C° 0 mm 7 m/s 756 mmHg 48%
    21:00 +28°C° 0 mm 7 m/s 757 mmHg 50%
    22:00 +28°C° 0 mm 7 m/s 757 mmHg 52%
    23:00 +27°C° 0 mm 7 m/s 758 mmHg 54%

    Depois de amanhã, 27 Maio, Domingo

    Tempo Temperatura Precipitação Vento Pressão Humidade
    00:00 +26°C° 0 mm 8 m/s 758 mmHg 56%
    01:00 +26°C° 0 mm 8 m/s 759 mmHg 57%
    02:00 +24°C° 0 mm 8 m/s 759 mmHg 57%
    03:00 +23°C° 0 mm 8 m/s 760 mmHg 57%
    04:00 +23°C° 0 mm 9 m/s 760 mmHg 55%
    05:00 +23°C° 0 mm 9 m/s 761 mmHg 52%
    06:00 +23°C° 0 mm 10 m/s 762 mmHg 50%
    07:00 +24°C° 0,1 mm 10 m/s 762 mmHg 47%
    08:00 +26°C° 0,1 mm 10 m/s 763 mmHg 45%
    09:00 +26°C° 0,1 mm 10 m/s 764 mmHg 43%
    10:00 +27°C° 0 mm 10 m/s 764 mmHg 43%
    11:00 +27°C° 0 mm 10 m/s 764 mmHg 43%
    12:00 +27°C° 0 mm 10 m/s 765 mmHg 43%
    13:00 +27°C° 0 mm 10 m/s 765 mmHg 43%
    14:00 +26°C° 0 mm 10 m/s 765 mmHg 42%
    15:00 +26°C° 0 mm 10 m/s 765 mmHg 42%
    16:00 +24°C° 0 mm 10 m/s 765 mmHg 43%
    17:00 +23°C° 0 mm 9 m/s 765 mmHg 44%
    18:00 +22°C° 0 mm 8 m/s 765 mmHg 44%
    19:00 +21°C° 0 mm 7 m/s 766 mmHg 45%
    20:00 +20°C° 0 mm 6 m/s 766 mmHg 46%
    21:00 +20°C° 0 mm 5 m/s 766 mmHg 47%
    22:00 +20°C° 0 mm 4 m/s 766 mmHg 48%
    23:00 +19°C° 0 mm 3 m/s 765 mmHg 49%

    28 Maio, Segunda-feira

    Tempo Temperatura Precipitação Vento Pressão Humidade
    00:00 +19°C° 0 mm 2 m/s 765 mmHg 50%
    01:00 +18°C° 0 mm 2 m/s 765 mmHg 52%
    02:00 +19°C° 0 mm 1 m/s 764 mmHg 54%
    03:00 +19°C° 0 mm 1 m/s 764 mmHg 55%
    04:00 +19°C° 0 mm 1 m/s 764 mmHg 53%
    05:00 +19°C° 0 mm 2 m/s 764 mmHg 51%
    06:00 +19°C° 0 mm 2 m/s 763 mmHg 49%
    07:00 +21°C° 0 mm 2 m/s 763 mmHg 45%
    08:00 +22°C° 0 mm 3 m/s 763 mmHg 41%
    09:00 +24°C° 0 mm 3 m/s 763 mmHg 37%
    10:00 +26°C° 0 mm 3 m/s 762 mmHg 34%
    11:00 +27°C° 0 mm 2 m/s 761 mmHg 32%
    12:00 +29°C° 0 mm 2 m/s 761 mmHg 29%
    13:00 +29°C° 0 mm 3 m/s 760 mmHg 29%
    14:00 +30°C° 0 mm 3 m/s 760 mmHg 29%
    15:00 +30°C° 0 mm 4 m/s 759 mmHg 29%
    16:00 +29°C° 0 mm 4 m/s 759 mmHg 33%
    17:00 +28°C° 0 mm 4 m/s 759 mmHg 37%
    18:00 +27°C° 0 mm 5 m/s 759 mmHg 40%
    19:00 +26°C° 0 mm 4 m/s 760 mmHg 45%
    20:00 +25°C° 0 mm 3 m/s 760 mmHg 49%
    21:00 +24°C° 0 mm 2 m/s 760 mmHg 53%
    22:00 +23°C° 0 mm 2 m/s 760 mmHg 55%
    23:00 +23°C° 0 mm 2 m/s 760 mmHg 57%

    29 Maio, Terça-feira

    Tempo Temperatura Precipitação Vento Pressão Humidade
    00:00 +22°C° 0 mm 1 m/s 760 mmHg 59%
    01:00 +22°C° 0 mm 1 m/s 760 mmHg 58%
    02:00 +22°C° 0 mm 1 m/s 760 mmHg 58%
    03:00 +22°C° 0 mm 1 m/s 760 mmHg 58%
    04:00 +23°C° 0 mm 2 m/s 760 mmHg 56%
    05:00 +22°C° 0 mm 3 m/s 760 mmHg 55%
    06:00 +22°C° 0 mm 4 m/s 760 mmHg 54%
    07:00 +25°C° 0 mm 5 m/s 760 mmHg 48%
    08:00 +27°C° 0 mm 5 m/s 760 mmHg 41%
    09:00 +28°C° 0 mm 6 m/s 760 mmHg 35%
    10:00 +29°C° 0 mm 6 m/s 760 mmHg 32%
    11:00 +30°C° 0 mm 7 m/s 760 mmHg 29%
    12:00 +32°C° 0 mm 8 m/s 760 mmHg 26%
    13:00 +31°C° 0 mm 8 m/s 760 mmHg 26%
    14:00 +31°C° 0 mm 9 m/s 760 mmHg 27%
    15:00 +31°C° 0 mm 10 m/s 759 mmHg 27%
    16:00 +28°C° 0 mm 10 m/s 760 mmHg 29%
    17:00 +27°C° 0 mm 10 m/s 760 mmHg 30%
    18:00 +26°C° 0 mm 10 m/s 760 mmHg 32%
    19:00 +24°C° 0 mm 9 m/s 760 mmHg 32%
    20:00 +24°C° 0 mm 9 m/s 761 mmHg 32%
    21:00 +23°C° 0 mm 9 m/s 762 mmHg 32%
    22:00 +23°C° 0 mm 9 m/s 762 mmHg 37%
    23:00 +22°C° 0 mm 9 m/s 762 mmHg 42%

    30 Maio, Quarta-feira

    Tempo Temperatura Precipitação Vento Pressão Humidade
    00:00 +22°C° 0 mm 9 m/s 762 mmHg 47%
    01:00 +21°C° 0 mm 9 m/s 762 mmHg 51%
    02:00 +21°C° 0 mm 8 m/s 762 mmHg 54%
    03:00 +20°C° 0 mm 8 m/s 762 mmHg 57%
    04:00 +20°C° 0 mm 8 m/s 762 mmHg 57%
    05:00 +20°C° 0 mm 8 m/s 763 mmHg 57%
    06:00 +20°C° 0 mm 8 m/s 763 mmHg 57%
    07:00 +21°C° 0 mm 8 m/s 763 mmHg 54%
    08:00 +21°C° 0 mm 8 m/s 764 mmHg 52%
    09:00 +22°C° 0 mm 7 m/s 764 mmHg 50%
    10:00 +23°C° 0 mm 7 m/s 764 mmHg 46%
    11:00 +24°C° 0 mm 7 m/s 764 mmHg 42%
    12:00 +26°C° 0 mm 7 m/s 763 mmHg 38%
    13:00 +26°C° 0 mm 7 m/s 763 mmHg 36%
    14:00 +26°C° 0 mm 7 m/s 763 mmHg 35%
    15:00 +26°C° 0 mm 7 m/s 763 mmHg 34%
    16:00 +24°C° 0 mm 7 m/s 763 mmHg 35%
    17:00 +23°C° 0 mm 7 m/s 763 mmHg 36%
    18:00 +22°C° 0 mm 6 m/s 762 mmHg 37%
    19:00 +22°C° 0 mm 5 m/s 762 mmHg 39%
    20:00 +21°C° 0 mm 4 m/s 763 mmHg 41%
    21:00 +20°C° 0 mm 3 m/s 763 mmHg 43%
    22:00 +20°C° 0 mm 2 m/s 762 mmHg 45%
    23:00 +19°C° 0 mm 2 m/s 761 mmHg 47%
    Mostrar mais